Parsons, KS

6:34 PM CDT on April 30, 2017 (GMT -0500)
Tri-City

Weather History for KPPF - January, 2014

Change the Weather History Date:

Sunday, January 19, 2014

  Actual Average Record
Temperature  
Mean Temperature 42 °F -  
Max Temperature 64 °F 41 °F 70 °F (1951)
Min Temperature 19 °F 22 °F -17 °F (1984)
Degree Days  
Heating Degree Days 24    
Moisture  
Dew Point 22 °F    
Average Humidity 55    
Maximum Humidity 88    
Minimum Humidity 21    
Precipitation  
Precipitation 0.00 in - - ()
Sea Level Pressure  
Sea Level Pressure 30.05 in    
Wind  
Wind Speed 5 mph (SSW)    
Max Wind Speed 17 mph    
Max Gust Speed 28 mph    
Visibility 10 miles    
Events      
Averages and records for this station are not official NWS values.
T = Trace of Precipitation, MM = Missing Value Source: NWS Daily Summary

Daily Weather History Graph

Daily Weather History Graph

Search for Another Location

Airport or City:

Trip Planner

Search our weather history database for the weather conditions in past years. The results will help you decide how hot, cold, wet, or windy it might be!

Date:

Astronomy

Jan. 19, 2014 Rise Set
Actual Time 7:33 AM CST 5:32 PM CST
Civil Twilight 7:05 AM CST 6:00 PM CST
Nautical Twilight 6:33 AM CST 6:32 PM CST
Astronomical Twilight 6:02 AM CST 7:03 PM CST
Moon 9:05 PM CST (1/19) 9:09 AM CST (1/19)
Length of Visible Light 10h 55m
Length of Day
9h 58m
Waning Gibbous, 89% of the Moon is Illuminated
Jan 19
Waning Gibbous
Jan 23
Last Quarter
Jan 30
New
Feb 6
First Quarter
Feb 14
Full

Hourly Weather History & Observations

Time (CST) Temp. Windchill Dew Point Humidity Pressure Visibility Wind Dir Wind Speed Gust Speed Precip Events Conditions
12:52 AM 24.1 °F 19.7 °F 18.0 °F 77% 30.18 in 10.0 mi West 3.5 mph - N/A   Clear
1:52 AM 21.9 °F - 17.1 °F 82% 30.18 in 10.0 mi Calm Calm - N/A   Clear
2:52 AM 19.9 °F - 16.0 °F 85% 30.19 in 10.0 mi Calm Calm - N/A   Clear
3:52 AM 19.9 °F - 16.0 °F 85% 30.19 in 10.0 mi Calm Calm - N/A   Clear
4:52 AM 19.0 °F - 16.0 °F 88% 30.17 in 10.0 mi Calm Calm - N/A   Clear
5:52 AM 19.9 °F - 16.0 °F 85% 30.17 in 10.0 mi Calm Calm - N/A   Clear
6:52 AM 24.1 °F 18.2 °F 19.0 °F 81% 30.16 in 10.0 mi SSW 4.6 mph - N/A   Clear
7:52 AM 23.0 °F 17.0 °F 19.0 °F 85% 30.16 in 10.0 mi SSW 4.6 mph - N/A   Clear
8:52 AM 30.0 °F 22.4 °F 25.0 °F 82% 30.16 in 10.0 mi SW 8.1 mph - N/A   Clear
9:52 AM 39.0 °F 33.4 °F 26.1 °F 60% 30.15 in 10.0 mi SW 8.1 mph - N/A   Clear
10:52 AM 46.9 °F - 26.1 °F 44% 30.13 in 10.0 mi SW 12.7 mph - N/A   Clear
11:52 AM 51.1 °F - 25.0 °F 36% 30.08 in 10.0 mi SW 17.3 mph 23.0 mph N/A   Clear
12:52 PM 55.0 °F - 25.0 °F 31% 30.02 in 10.0 mi SSW 15.0 mph - N/A   Clear
1:52 PM 59.0 °F - 24.1 °F 26% 29.96 in 10.0 mi SSW 16.1 mph 27.6 mph N/A   Clear
2:52 PM 63.0 °F - 23.0 °F 22% 29.92 in 10.0 mi SSW 13.8 mph 24.2 mph N/A   Clear
3:52 PM 64.0 °F - 23.0 °F 21% 29.93 in 10.0 mi SW 12.7 mph 24.2 mph N/A   Clear
4:52 PM 62.1 °F - 23.0 °F 22% 29.93 in 10.0 mi SSW 9.2 mph - N/A   Clear
5:52 PM 54.0 °F - 23.0 °F 30% 29.92 in 10.0 mi South 6.9 mph - N/A   Clear
6:52 PM 50.0 °F - 24.1 °F 36% 29.91 in 10.0 mi South 9.2 mph - N/A   Clear
7:52 PM 46.9 °F - 23.0 °F 39% 29.93 in 10.0 mi SSW 8.1 mph - N/A   Clear
8:52 PM 43.0 °F 40.3 °F 23.0 °F 45% 29.93 in 10.0 mi South 4.6 mph - N/A   Clear
9:52 PM 41.0 °F 39.0 °F 24.1 °F 51% 29.94 in 10.0 mi SE 3.5 mph - N/A   Clear
10:52 PM 41.0 °F 39.0 °F 24.1 °F 51% 29.93 in 10.0 mi SSE 3.5 mph - N/A   Clear
11:52 PM 39.0 °F 36.8 °F 24.1 °F 55% 29.92 in 10.0 mi South 3.5 mph - N/A   Clear